OPS 4682 DEB, 19964

Orbit data source: Space-Track

OPS 4682 DEB, 19964 is space debris in LEO originally from a launch on Sat, 03 Apr 1965 UTC launched from the Air Force Western Test Range (AFWTR). Debris objects in space refer to the collection of defunct objects orbiting the Earth. Examples of debris include non-operational satellites, rocket bodies, and fragments generated from explosions, collisions, or faulty payload assembly.

Loading next visibility...
Identifier
19964, 1965-027BA
Orbit
LEO
Country
Flag of USUS
Related business
Manufacturer
Unknown
Mission
Spacecraft
Bus & Motor
Unknown
Mass
Unknown
Launch date (UTC)
1965-04-03 (61 years ago)
Launch vehicle
Unknown
Launch site
Air Force Western Test Range (AFWTR)
Object type
Payload
Rocket body
Debris
Shape & HBR
Unknown shape, 0.1 m
Radar Cross Section
Medium (>0.1 m² and <1 m²)

Expand to show TLE details & history
Last TLE update: 20 hours ago

TLE from 20 hours ago
0 OPS 4682 DEB
1 19964U 65027BA  26235.35840567  .00000017  00000-0  33977-4 0  9996
2 19964  90.2675  18.7237 0017314   7.2517  21.1284 12.97085366560776
Epoch: 2026-08-23T08:36Z
TLE epoch observation values (Epoch: 2026-08-23T08:36:06.249Z)
Latitude
28.49162°
Longitude
-82.1024°
Altitude
1,264.688 km
Speed
7.231 km/s
True Right ascension
01h 14m 19s
True Declination
28° 21' 26"
Sunlit
Object was in daylight at epoch
Visualization orbit readout
Latitude
Unknown
Longitude
Unknown
Altitude
Unknown
Speed
Unknown
Apparent Right ascension
Unknown
Apparent Declination
Unknown
Sunlit
N/A
Visualization observer readout
Local Sidereal Time
19:31:26
Azimuth
Unknown
Elevation
Unknown
Doppler factor
Unknown
Orbital elements
Apogee altitude
1,283.902 km
Perigee altitude
1,257.416 km
Semi-major axis
7,648.796 km
Eccentricity
0.00173
Inclination
90.2675°
RAAN
18.7237°
Arg. of periapsis
7.2517°
True anomaly
21.20006°
Mean anomaly
21.1284°
Eccentric anomaly
21.16422°
Mean motion
3.24454 °/min
Orbital period
110.96 mins
BSTAR
0.000033977
Loading maneuver chart data...
Computing Atmospheric mass density...
Loading historical data...
Loading historical data...
Loading historical data...
Loading historical data...
Loading historical data...
Loading historical data...
Loading historical data...

Documentation

Showing up to 5 results
|